星链-35902(STARLINK-35902)

导读 | 豆包AI

STARLINK-35902是美国SpaceX星链星座的卫星,于2025年11月23日发射升空。作为星链低轨互联网星座建设的组成部分,它承担着为全球提供高速低延迟宽带互联网服务的任务,尤其服务偏远地区、移动载具的网络接入需求,是美国低轨卫星互联网组网进程中的一环。

基本信息
目录编号:
66626
目录名称:
STARLINK-35902
国际标识:
2025-271K
轨道中心:
EARTH
卫星名称:
星链-35902
卫星全名:
星链-35902(STARLINK-35902)
卫星状态:
在轨 (已飞行157 天)
发射日期:
2025-11-23 UTC
国别 :
美国 (US)
星等 :
--
轨道信息
数据来源 国际轨道数据
星历时间: 2026-04-28T22:16:59+0800
12小时前
查看轨道信息
半长轴: 6853.344km
偏心率: 0.0001258
轨道倾角: 53.160°
近地点辐角 92.416°
升交点赤经 268.395°
平近点角 267.699°
近地点: 474.344km
远地点: 476.07km
周期: 94.105分钟
每日圈数: 15.30203
详细信息
固有亮度:
5
最大亮度:
2.5
卫星平台:
Starlink V1.0
覆盖范围:
全球
运营商:
太空探索技术公司
运营商所在国:
美国
制造商(研发单位):
太空探索技术公司
制造商所在国:
美国
使用方式:
暂无
卫星简介
Starlink 计划是 SpaceX 推出的全球卫星互联网项目,通过发射低轨道卫星,为全球尤其是偏远地区提供高速、低延迟的互联网服务。自 2019 年起,Starlink 已部署数千颗卫星,旨在缩小全球数字鸿沟,推动互联网普及。该项目还为军事、航空等行业提供通信支持,带来广泛经济效益。
2D轨道图
3D轨道图
轨道高度分析图
轨道倾角分析图
轨道综合分析图
查看轨道综合分析图